Flag for U.S.A. Weather past 2 weeks in Milwaukee, Wisconsin, U.S.A.

Now
72 °F

Scattered clouds.


Feels Like: 77 °F
Forecast: 60 / 72 °F
Wind: 14 mph from Northeast

Location: Milwaukee / Timmerman

Current Time: Jul 23, 2014 at 1:38:43 PM

Latest Report: Jul 23, 2014 at 12:45 PM


Visibility: 10 mi

Pressure: 30.19 "Hg

Humidity: 44%

Dew point: 48 °F

Location of MilwaukeeLocation

Historic Weather in Milwaukee — Graph

°F

Milwaukee temperature yesterday

Maximum temperature yesterday: 88 °F (at 5:45 PM)
Minimum temperature yesterday: 66 °F (at 11:55 PM)
Average temperature yesterday: 75 °F

Past Weeks' High & Low Weather Summary

 TemperatureHumidityPressure
High88 °F (Jul 22, 5:45 PM)94% (Jul 9, 4:55 AM)30.21 "Hg (Jul 9, 4:55 AM)
Low52 °F (Jul 15, 5:55 AM)28% (Jul 14, 1:45 PM)29.68 "Hg (Jul 8, 11:45 AM)
Average65 °F67%30.03 "Hg
* Reported Jul 8 11:45 AM — Jul 23 11:45 AM, Milwaukee, Weather by CustomWeather, © 2014

Note: Actual official high and low records may vary slightly from our data, if they occured in-between our weather recording intervals... More about our weather records

Advertising

Milwaukee weather history for previous 24 hours

 ConditionsComfort  
Time TempWeatherWind HumidityBarometerVisibility
11:45 AM
Jul 23
70 °FSunny.14 mph53%30.19 "Hg10 mi
10:45 AM68 °FSunny.10 mph56%30.19 "Hg10 mi
9:45 AM68 °FScattered clouds.12 mph56%30.19 "Hg10 mi
8:45 AM66 °FSunny.13 mph64%30.18 "Hg10 mi
7:45 AM63 °FSunny.12 mph73%30.17 "Hg10 mi
4:55 AM59 °FClear.8 mph82%30.13 "Hg10 mi
4:35 AM61 °FClear.5 mph77%30.12 "Hg10 mi
4:15 AM59 °FClear.6 mph82%30.12 "Hg10 mi
3:55 AM61 °FClear.7 mph77%30.12 "Hg10 mi
3:15 AM61 °FClear.8 mph77%30.11 "Hg10 mi
12:55 AM63 °FOvercast.14 mph73%30.09 "Hg10 mi
12:10 AM64 °FMostly cloudy.17 mph73%30.07 "Hg10 mi
11:55 PM
Jul 22
66 °FMostly cloudy.16 mph73%30.06 "Hg10 mi
11:15 PM73 °FMostly cloudy.6 mph65%30.03 "Hg10 mi
10:55 PM77 °FPassing clouds.8 mph57%30.01 "Hg10 mi
10:15 PM79 °FPassing clouds.15 mph58%29.98 "Hg10 mi
9:55 PM79 °FPassing clouds.15 mph54%29.97 "Hg10 mi
9:35 PM81 °FPassing clouds.15 mph54%29.97 "Hg10 mi
9:15 PM81 °FScattered clouds.12 mph54%29.97 "Hg10 mi
8:45 PM82 °FScattered clouds.17 mph55%29.94 "Hg10 mi
7:45 PM84 °FPartly sunny.6 mph70%29.92 "Hg10 mi
5:45 PM88 °FPartly sunny.6 mph62%29.91 "Hg10 mi
Weather by CustomWeather, © 2014

See weather overviewHow to use our weather pages